Location: Ecklingerode
(51.5036°N, 10.3122°E)
Time: 14:26:30
(UTC+00:00)

Meteor 2-15 - Pass Details

Date: 29 October 2020
Orbit: 935 x 956 km, 82.5° (Epoch: 28 November)

Event Time Altitude Azimuth Distance (km) Brightness Sun altitude
Rises 17:46:19 0° 186° (S) 3,622 7.6 -17.5°
Reaches altitude 10° 17:48:48 10° 185° (S) 2,679 6.9 -17.9°
Maximum altitude 17:54:56 84° 98° (E) 966 4.4 -18.9°
Drops below altitude 10° 18:01:06 10° 12° (NNE) 2,686 6.7 -19.8°
Sets 18:03:36 0° 12° (NNE) 3,633 7.4 -20.2°
